Location: Fontevrault
(47.1823°N, 0.0493°E)
Time: 18:23:31
(UTC+00:00)

Cosmos 1725 Rocket - Pass Details

Date: 23 October 2021
Orbit: 961 x 991 km, 82.9° (Epoch: 27 November)

Event Time Altitude Azimuth Distance (km) Brightness Sun altitude
Exits shadow 19:04:41 10° 32° (NNE) 2,696 6.1 -22.2°
Drops below altitude 10° 19:04:50 10° 31° (NNE) 2,740 6.1 -22.2°
Sets 19:07:41 0° 19° (NNE) 3,666 6.9 -22.7°
